Meteo Giornale » Osservazioni meteo Francia » Annecy-Meythet

ore: 11:30 - Osservazioni Meteo Annecy-Meythet
Lat. 45° 55' N Lon. 6° 5' E Alt. 463 metri s.l.m.

nebbia Europe/Paris

2 °C

Banco di Nebbia

Temp. 24 Ore

-1 °C

10 °C

Nord

3.7 Km/h

Dew point 2 °C

Umidità 100 %

Visibilità  0.6 Km

Il sole sorge alle ore 07:48

Il sole tramonta alle ore 16:57

Data e Ora Cielo e Fenomeni T °C DP °C Um. % Pres. hPa Vis. km Vento km/h
Oggi h: 11:30 nebbia Banco di Nebbia 2 2 100 1021 0.6 N 3.7
Oggi h: 11:00 foschia Foschia 2 2 100 1021 2 N 3.7
Oggi h: 10:30 nebbia Nebbia 2 2 100 1021 0.8 N 1.8
Oggi h: 10:00 nebbia Nebbia 1 1 100 1021 0.8 N 0
Oggi h: 09:30 nebbia Nebbia 1 1 100 1021 0.3 N 3.7
Oggi h: 09:00 nebbia Nebbia 0 0 100 1021 0.3 N 1.8
Oggi h: 08:30 nebbia Nebbia Congelantesi -0 -0 100 1021 0.6 N 5.5
Oggi h: 08:00 nebbia Nebbia Congelantesi -0 -0 100 1021 0.45 N 5.5
Oggi h: 07:30 nebbia Nebbia Congelantesi -1 -1 100 1021 0.4 N/NO 7.4
Oggi h: 07:00 nebbia Nebbia Congelantesi -1 -1 100 1021 0.35 N 3.7
Oggi h: 06:30 nebbia Nebbia Congelantesi -0 -0 100 1021 0.35 N 1.8
Oggi h: 06:00 nebbia Nebbia Congelantesi -1 -1 100 1021 0.3 N 3.7
Oggi h: 04:00 nebbia Nebbia Congelantesi -1 -1 100 1021 0.25 N 0
Oggi h: 03:30 nebbia Nebbia Congelantesi -1 -1 100 1021 0.35 N 0
Oggi h: 03:00 nebbia Nebbia 0 0 100 1021 0.4 N/NO 7.4
Oggi h: 02:30 nebbia Nebbia Congelantesi -0 -0 100 1021 0.35 N 3.7
Oggi h: 02:00 nebbia Nebbia Congelantesi -0 -0 100 1021 0.35 N 5.5
Oggi h: 01:30 nebbia Nebbia 0 0 100 1021 0.35 N/NO 7.4
Oggi h: 01:00 nebbia Nebbia 0 -0 100 1021 0.35 N/NO 7.4
Oggi h: 00:30 nebbia Banco di Nebbia 0 -0 100 1022 0.6 N/NO 7.4
Oggi h: 00:00 sereno Sereno -0 -1 92 1022 7 N 3.7
Ieri h: 23:30 sereno Sereno -0 -1 92 1022 6 N 5.5
Ieri h: 23:00 foschia Foschia -0 -1 92 1022 5 N 3.7
Ieri h: 22:30 sereno Sereno 0 -0 100 1022 7 N 1.8
Ieri h: 22:00 sereno Sereno 0 -0 100 1022 6 N 5.5
Ieri h: 21:30 foschia Foschia 1 -0 93 1022 5 N 1.8
Ieri h: 21:00 sereno Sereno 1 0 93 1022 6 N 3.7
Ieri h: 20:30 foschia Foschia 2 1 93 1022 5 N 3.7
Ieri h: 20:00 foschia Foschia 3 1 86 1022 5 N/NO 7.4
Ieri h: 19:30 foschia Foschia 3 2 93 1022 5 NO 7.4
Ieri h: 19:00 sereno Sereno 4 2 86 1022 6 N/NO 9.3
Ieri h: 18:30 sereno Sereno 4 2 86 1022 6 NO 7.4
Ieri h: 18:00 sereno Sereno 5 2 80 1022 6 NO 9.3
Ieri h: 17:00 sereno Sereno 6 3 81 1022 8 NO 11.1
Ieri h: 16:00 sereno Sereno 9 3 66 1022 10 NO 9.3
Ieri h: 15:30 sereno Sereno 10 2 57 1022 10 N 3.7
Ieri h: 15:00 sereno Sereno 10 2 57 1023 10 N 1.8
Ieri h: 14:30 sereno Sereno 10 3 61 1023 10 N 0
Ieri h: 14:00 sereno Sereno 9 3 66 1023 10 N 1.8
Ieri h: 13:30 sereno Sereno 8 3 70 1024 10 N 3.7
Ieri h: 13:00 sereno Sereno 7 3 75 1024 9 N 5.5
Ieri h: 12:30 sereno Sereno 9 3 66 1025 9 N 0
Ieri h: 12:00 sereno Sereno 8 3 70 1025 9 N 0